Location: Czekanka
(50.4925°N, 19.2643°E)
Time: 01:31:17
(UTC+00:00)

CZ-2C R/B - Pass Details

Date: 24 September 2024
Orbit: 703 x 903 km, 98.2° (Epoch: 09 October)

Event Time Altitude Azimuth Distance (km) Brightness Sun altitude
Rises 23:53:21 0° 19° (NNE) 3,541 7.4 -37.7°
Reaches altitude 10° 23:55:58 10° 27° (NNE) 2,593 6.5 -37.5°
Enters shadow 23:59:40 32° 58° (ENE) 1,495 4.8 -37.3°
